Location: Newark
(12.4436°N, 0.6167°W)
Time: 23:01:26
(UTC+00:00)

Transit 2A - Pass Details

Date: 15 December 2019
Orbit: 601 x 958 km, 66.7° (Epoch: 21 January)

Event Time Altitude Azimuth Distance (km) Brightness Sun altitude
Rises 05:31:09 0° 227° (SW) 3,287 9.0 -10.8°
Reaches altitude 10° 05:34:10 10° 242° (WSW) 2,288 8.1 -10.1°
Maximum altitude 05:38:08 22° 292° (WNW) 1,541 7.0 -9.2°
Drops below altitude 10° 05:41:50 10° 342° (NNW) 2,116 7.9 -8.4°
Sets 05:44:30 0° 358° (N) 2,975 8.8 -7.8°
